Location: Joffre
(52.3362°N, 113.5373°W)
Time: 13:12:18
(UTC+00:00)

Envisat - Pass Details

Date: 06 December 2021
Orbit: 764 x 766 km, 98.2° (Epoch: 23 January)

Event Time Altitude Azimuth Distance (km) Brightness Sun altitude
Rises 10:57:36 0° 30° (NNE) 3,246 6.8 -40.0°
Reaches altitude 10° 11:01:41 10° 62° (ENE) 2,312 6.1 -39.4°
Maximum altitude 11:03:27 12° 83° (E) 2,192 6.0 -39.1°
Drops below altitude 10° 11:05:13 10° 103° (ESE) 2,305 6.0 -38.9°
Sets 11:09:15 0° 136° (SE) 3,224 6.6 -38.3°
